星链-5453 (STARLINK-5453 )

导读 | 豆包AI

STARLINK-5453是美国太空探索技术公司SpaceX星链星座的卫星,于2022年12月17日发射升空,属于星链互联网卫星网络的组成部分。星链系统旨在为全球提供高速低延迟宽带互联网服务,该卫星入轨后参与星座组网,推进全球覆盖的卫星互联网部署进程。

Basic Information
目录编号:
54773
目录名称:
STARLINK-5453
国际标识:
2022-175R
轨道中心:
EARTH
卫星名称:
星链-5453
卫星全名:
星链-5453 (STARLINK-5453 )
卫星状态:
在轨 (已飞行1230 天)
发射日期:
2022-12-17 UTC
国别 :
美国 (US)
星等 :
--
Orbit Information
数据来源 国际轨道数据 AOE轨道数据
星历时间 2026-04-30T04:18:17+0800
19小时前
查看轨道信息
2026-04-25T08:00:00+0800
5天前
查看轨道信息
半长轴 6917.894km 6917.872km
偏心率 0.0001202 0.0001877
轨道倾角 53.217° 53.214°
近地点辐角 76.285° 13.481°
升交点赤经 174.347° 196.103°
平近点角 283.827° 289.589°
近地点 538.925km 538.436km
远地点 540.589km 541.034km
周期 95.438分钟 95.437分钟
每日圈数 15.088356 15.088428
Detailed Information
固有亮度:
5
最大亮度:
2.5
卫星平台:
Starlink v1.5
覆盖范围:
全球
运营商:
太空探索技术公司
运营商所在国:
美国
制造商(研发单位):
太空探索技术公司
制造商所在国:
美国
使用方式:
暂无
Satellite Introduction
星链(Starlink)计划是由太空探索技术公司(SpaceX)提出的一个巨型低轨卫星互联网星座项目,计划在2019年至2024年间在太空搭建由约1.2万颗卫星组成的“星链”网络,其中1584颗将部署在地球上空550千米处的近地轨道,并从2020年开始工作。该卫星仍在工作。
2D Orbit Map
3D Orbit Map
Orbit Altitude Analysis Chart
Orbit Inclination Analysis Chart
Orbit Comprehensive Analysis Chart
View Comprehensive Chart